Погода в Ирте

Россия / Архангельская область     62°05′12″N   48°51′05″E
темп.,
°C
ветер,
м/с
пор.,
м/с
влажн.,
%
обл.,
%
осадки,
мм/ч
давл.,
гПа
погр.,
м
27 июля, вт
вт2700:00+7сз210972 0.0 1014278
03:00+5зсз310973 0.0 1016281
06:00+7зсз3109399 0.0 1015530
09:00+12сз475693 0.0 10151466
12:00+13сз5858100 0.0 10151528
15:00+11сз41069100 0.0 10151277
18:00+12сз4966100 0.1 10151003
21:00+11сз496894 0.1 10151157
28 июля, ср
ср2800:00+10ссз387263 0.0 1015822
03:00+8зсз378098 0.0 1015391
06:00+9зсз377251 0.0 1015433
09:00+14зсз46515 0.0 10141098
12:00+17зсз4740100 0.0 10111737
15:00+20зсз483898 0.0 10092332
18:00+18з484486 0.0 10081307
21:00+12всв2475100 0.0 1006109
29 июля, чт
чт2900:00+11св118565 0.0 100625
03:00+8св11963 0.0 100611
06:00+12в128067 0.0 1005244
09:00+17ю016367 0.0 1005733
12:00+16ююз116433 0.0 1004585
15:00+21св124826 0.0 10031397
18:00+17всв456668 0.0 1002509
21:00+12в3888100 0.0 1002219
30 июля, пт
пт3000:00+10в289763 0.0 1001179
03:00+11в1299100 1.1 99980
06:00+13в1198100 0.5 998122
09:00+14всв0197100 0.7 998157
12:00+16ссв1191100 0.1 999257
15:00+16всв119597 1.1 999217
18:00+15ссв239766 1.2 1001266
21:00+11св249992 1.2 1002144
31 июля, сб
сб3100:00+11в1399100 0.1 1002106
03:00+12вюв12100100 0.3 100179
06:00+15ю1397100 0.3 1001197
09:00+18зюз248599 0.5 1000367
12:00+20юз4868100 0.6 999955
15:00+23з49540 1.6 9991908
18:00+21з394944 0.0 999489
21:00+16ююз227335 0.0 99932